When you browse on this site, cookies collect data to enhance your experience and personalize the content and advertising you see.
Visit our Privacy Policy to learn more. By continuing to use the site, you agree to this use of cookies and data.
  • In Portugal
  • List of Countries
  • For 7 days
  • Water Temperature
  • Satellite Maps
  • Weather Map
  • Weather Widgets
  • user-avatar
    Login

    Hourly Weather Mansa Konko

    Today, 18 November, Sunday

    Time Temperature Precipitation Wind Pressure Humidity
    00:00 +28°C° 0 mm 5 mps 758 mmHg 42%
    01:00 +27°C° 0 mm 4 mps 758 mmHg 45%
    02:00 +27°C° 0 mm 4 mps 758 mmHg 49%
    03:00 +27°C° 0 mm 3 mps 758 mmHg 51%
    04:00 +26°C° 0 mm 3 mps 758 mmHg 54%
    05:00 +26°C° 0 mm 2 mps 758 mmHg 57%
    06:00 +27°C° 0 mm 2 mps 758 mmHg 54%
    07:00 +28°C° 0 mm 2 mps 758 mmHg 52%
    08:00 +29°C° 0 mm 2 mps 759 mmHg 50%
    09:00 +31°C° 0 mm 2 mps 759 mmHg 44%
    10:00 +34°C° 0 mm 2 mps 759 mmHg 38%
    11:00 +36°C° 0 mm 2 mps 759 mmHg 32%
    12:00 +36°C° 0 mm 2 mps 758 mmHg 31%
    13:00 +36°C° 0 mm 3 mps 758 mmHg 29%
    14:00 +37°C° 0 mm 3 mps 757 mmHg 28%
    15:00 +34°C° 0.3 mm 3 mps 757 mmHg 38%
    16:00 +31°C° 0.3 mm 3 mps 758 mmHg 48%
    17:00 +29°C° 0.3 mm 3 mps 758 mmHg 57%
    18:00 +28°C° 0.3 mm 3 mps 758 mmHg 60%
    19:00 +28°C° 0.3 mm 2 mps 759 mmHg 62%
    20:00 +27°C° 0.3 mm 2 mps 760 mmHg 64%
    21:00 +27°C° 0.1 mm 2 mps 760 mmHg 65%
    22:00 +27°C° 0.1 mm 2 mps 760 mmHg 66%
    23:00 +26°C° 0.1 mm 2 mps 760 mmHg 67%

    Tomorrow, 19 November, Monday

    Time Temperature Precipitation Wind Pressure Humidity
    00:00 +26°C° 0.4 mm 2 mps 760 mmHg 70%
    01:00 +25°C° 0.4 mm 2 mps 760 mmHg 74%
    02:00 +25°C° 0.4 mm 2 mps 759 mmHg 77%
    03:00 +25°C° 0.2 mm 1 mps 759 mmHg 77%
    04:00 +25°C° 0.2 mm 1 mps 759 mmHg 76%
    05:00 +25°C° 0.2 mm 1 mps 759 mmHg 76%
    06:00 +25°C° 0.4 mm 1 mps 759 mmHg 75%
    07:00 +25°C° 0.4 mm 1 mps 759 mmHg 74%
    08:00 +23°C° 0.4 mm 0 mps 760 mmHg 73%
    09:00 +27°C° 0.1 mm 1 mps 760 mmHg 65%
    10:00 +30°C° 0.1 mm 1 mps 759 mmHg 56%
    11:00 +32°C° 0.1 mm 1 mps 759 mmHg 48%
    12:00 +33°C° 0 mm 1 mps 759 mmHg 44%
    13:00 +34°C° 0 mm 1 mps 758 mmHg 41%
    14:00 +33°C° 0 mm 0 mps 757 mmHg 38%
    15:00 +34°C° 0 mm 1 mps 757 mmHg 41%
    16:00 +33°C° 0 mm 1 mps 757 mmHg 44%
    17:00 +32°C° 0 mm 1 mps 757 mmHg 47%
    18:00 +31°C° 0 mm 2 mps 758 mmHg 52%
    19:00 +30°C° 0 mm 2 mps 758 mmHg 57%
    20:00 +29°C° 0 mm 2 mps 759 mmHg 62%
    21:00 +28°C° 0 mm 2 mps 759 mmHg 63%
    22:00 +28°C° 0 mm 2 mps 759 mmHg 64%
    23:00 +28°C° 0 mm 2 mps 759 mmHg 65%

    Day after tomorrow, 20 November, Tuesday

    Time Temperature Precipitation Wind Pressure Humidity
    00:00 +27°C° 0 mm 2 mps 759 mmHg 64%
    01:00 +27°C° 0 mm 2 mps 758 mmHg 63%
    02:00 +27°C° 0 mm 2 mps 758 mmHg 62%
    03:00 +26°C° 0 mm 2 mps 758 mmHg 62%
    04:00 +26°C° 0 mm 2 mps 758 mmHg 61%
    05:00 +25°C° 0 mm 2 mps 758 mmHg 61%
    06:00 +26°C° 0 mm 2 mps 759 mmHg 57%
    07:00 +27°C° 0 mm 2 mps 759 mmHg 53%
    08:00 +28°C° 0 mm 3 mps 760 mmHg 49%
    09:00 +30°C° 0 mm 3 mps 760 mmHg 43%
    10:00 +33°C° 0 mm 3 mps 759 mmHg 38%
    11:00 +35°C° 0 mm 3 mps 759 mmHg 32%
    12:00 +36°C° 0 mm 2 mps 759 mmHg 31%
    13:00 +37°C° 0 mm 2 mps 758 mmHg 30%
    14:00 +37°C° 0 mm 1 mps 757 mmHg 28%
    15:00 +36°C° 0 mm 1 mps 757 mmHg 30%
    16:00 +34°C° 0 mm 0 mps 757 mmHg 32%
    17:00 +33°C° 0 mm 0 mps 756 mmHg 35%
    18:00 +33°C° 0 mm 1 mps 757 mmHg 37%
    19:00 +32°C° 0 mm 1 mps 758 mmHg 40%
    20:00 +31°C° 0 mm 2 mps 758 mmHg 43%
    21:00 +30°C° 0 mm 2 mps 759 mmHg 46%
    22:00 +29°C° 0 mm 2 mps 759 mmHg 48%
    23:00 +29°C° 0 mm 2 mps 759 mmHg 51%

    21 November, Wednesday

    Time Temperature Precipitation Wind Pressure Humidity
    00:00 +28°C° 0 mm 2 mps 759 mmHg 51%
    01:00 +27°C° 0 mm 2 mps 758 mmHg 52%
    02:00 +27°C° 0 mm 3 mps 758 mmHg 52%
    03:00 +26°C° 0 mm 3 mps 758 mmHg 51%
    04:00 +26°C° 0 mm 3 mps 758 mmHg 50%
    05:00 +26°C° 0 mm 3 mps 758 mmHg 48%
    06:00 +27°C° 0 mm 3 mps 759 mmHg 45%
    07:00 +28°C° 0 mm 3 mps 759 mmHg 42%
    08:00 +29°C° 0 mm 4 mps 760 mmHg 38%
    09:00 +31°C° 0 mm 3 mps 759 mmHg 35%
    10:00 +34°C° 0 mm 3 mps 759 mmHg 31%
    11:00 +37°C° 0 mm 3 mps 759 mmHg 27%
    12:00 +38°C° 0 mm 3 mps 758 mmHg 26%
    13:00 +39°C° 0 mm 2 mps 757 mmHg 25%
    14:00 +39°C° 0 mm 1 mps 756 mmHg 24%
    15:00 +39°C° 0 mm 1 mps 756 mmHg 26%
    16:00 +37°C° 0 mm 1 mps 756 mmHg 28%
    17:00 +36°C° 0 mm 1 mps 756 mmHg 29%
    18:00 +34°C° 0 mm 1 mps 757 mmHg 32%
    19:00 +34°C° 0 mm 2 mps 758 mmHg 34%
    20:00 +31°C° 0 mm 2 mps 758 mmHg 36%
    21:00 +31°C° 0 mm 3 mps 758 mmHg 39%
    22:00 +30°C° 0 mm 3 mps 758 mmHg 41%
    23:00 +29°C° 0 mm 3 mps 758 mmHg 43%

    22 November, Thursday

    Time Temperature Precipitation Wind Pressure Humidity
    00:00 +28°C° 0 mm 3 mps 758 mmHg 44%
    01:00 +27°C° 0 mm 3 mps 758 mmHg 46%
    02:00 +27°C° 0 mm 3 mps 757 mmHg 48%
    03:00 +26°C° 0 mm 3 mps 758 mmHg 48%
    04:00 +26°C° 0 mm 3 mps 758 mmHg 48%
    05:00 +26°C° 0 mm 3 mps 758 mmHg 48%
    06:00 +27°C° 0 mm 3 mps 759 mmHg 45%
    07:00 +27°C° 0 mm 4 mps 759 mmHg 42%
    08:00 +28°C° 0 mm 4 mps 760 mmHg 39%
    09:00 +32°C° 0 mm 4 mps 759 mmHg 34%
    10:00 +35°C° 0 mm 4 mps 759 mmHg 29%
    11:00 +37°C° 0 mm 4 mps 759 mmHg 24%
    12:00 +38°C° 0 mm 4 mps 758 mmHg 22%
    13:00 +39°C° 0 mm 3 mps 757 mmHg 20%
    14:00 +40°C° 0 mm 3 mps 756 mmHg 19%
    15:00 +39°C° 0 mm 2 mps 756 mmHg 21%
    16:00 +38°C° 0 mm 2 mps 756 mmHg 22%
    17:00 +38°C° 0 mm 2 mps 756 mmHg 24%
    18:00 +36°C° 0 mm 2 mps 756 mmHg 26%
    19:00 +34°C° 0 mm 2 mps 757 mmHg 28%
    20:00 +33°C° 0 mm 3 mps 758 mmHg 31%
    21:00 +31°C° 0 mm 3 mps 758 mmHg 34%
    22:00 +30°C° 0 mm 4 mps 758 mmHg 37%
    23:00 +29°C° 0 mm 4 mps 758 mmHg 40%

    23 November, Friday

    Time Temperature Precipitation Wind Pressure Humidity
    00:00 +28°C° 0 mm 4 mps 757 mmHg 42%
    01:00 +28°C° 0 mm 4 mps 757 mmHg 44%
    02:00 +27°C° 0 mm 5 mps 757 mmHg 45%
    03:00 +27°C° 0 mm 4 mps 757 mmHg 46%
    04:00 +26°C° 0 mm 4 mps 757 mmHg 47%
    05:00 +26°C° 0 mm 4 mps 758 mmHg 47%
    06:00 +27°C° 0 mm 4 mps 758 mmHg 45%
    07:00 +27°C° 0 mm 5 mps 759 mmHg 43%
    08:00 +28°C° 0 mm 5 mps 759 mmHg 40%
    09:00 +32°C° 0 mm 5 mps 759 mmHg 34%
    10:00 +35°C° 0 mm 6 mps 759 mmHg 28%
    11:00 +38°C° 0 mm 6 mps 758 mmHg 22%
    12:00 +39°C° 0 mm 6 mps 757 mmHg 20%
    13:00 +41°C° 0 mm 6 mps 756 mmHg 18%
    14:00 +42°C° 0 mm 5 mps 755 mmHg 17%
    15:00 +41°C° 0 mm 5 mps 756 mmHg 18%
    16:00 +40°C° 0 mm 4 mps 756 mmHg 19%
    17:00 +38°C° 0 mm 3 mps 756 mmHg 20%
    18:00 +36°C° 0 mm 4 mps 756 mmHg 21%
    19:00 +35°C° 0 mm 4 mps 756 mmHg 22%
    20:00 +33°C° 0 mm 4 mps 757 mmHg 23%
    21:00 +33°C° 0 mm 5 mps 757 mmHg 26%
    22:00 +32°C° 0 mm 5 mps 757 mmHg 29%
    23:00 +30°C° 0 mm 5 mps 757 mmHg 33%
    Show more